Aeroporto :
LOGIN :

Iscrizione | Disclaimer

   EN    FR    IT 

 










Sommario :    VFR   VFR Marginale   IFR   IFR Intensivo   IFR Molto Intensivo
Visibilità : 
Base nubi : 
>= 8 km
>= 3000ft
5 / 8 km
1000 / 3000 ft
1500m / 5 km
500 / 1000 ft
800 / 1500m
200 / 500 ft
< 800m
< 200 ft
Simboli :   Temporali  Nebbia  Neve Forte  Precipitazioni Forti  Vento > 20 kt
SIGMETs :   Varie  Temporali  Ghiacco  Turbolenza  Onda orograficha  Ceneri Vulcaniche







- Altitudine del aeroporto : 187 ft


ETNW - Wunstorf AB

ULTIMO METAR :
  • 261920Z AUTO 23009KT 5000 // ////// 20/11 Q1008 ///

METARs OBSOLETI :
  • 261820Z AUTO 24012KT 5000 // ////// 20/11 Q1008 ///
  • 261720Z AUTO 24013KT 6000 // ////// 20/11 Q1008 ///

TAF TAF ETNW
Valido dal 26 a 17 ore il 27 a 17 ore UTC


261612Z 2617/2717 24010KT 9999 NSW SCT030 BKN060
TEMPO 2616/2619 25010G22KT 9999 NSW BKN030
BECMG 2621/2623 25012KT 7000 -RA SCT012 BKN020
TEMPO 2623/2706 25012G22KT 3000 RA BKN008 BKN012 BY ETGL
Nessun NOTAM noto per questo aeroporto.



MetMap, La meteo Aeronautica in un colpo d'occhio ! - Copyright ORBIFLY Dicembre 2007 - Disclaimer

ORBIFLY MET'MAP TEAM :

Programmazione e sviluppo : Alexandra Zaïnal
Concezione e sviluppo : Baudouin d'Aumeries
Co-Programmazione e sviluppo : Marc-Olivier Méhu
Supporto tecnico e logistico : Manuel Goepfert
Aiuto per la traduzione : Arnaldo La Scala

Contatto : metmap@orbifly.com




FONTI E CREDITI :

   NOAA